Time,TemperatureF,DewpointF,PressureIn,WindDirection,WindDirectionDegrees,WindSpeedMPH,WindSpeedGustMPH,Humidity,HourlyPrecipIn,Conditions,Clouds,dailyrainin,SoftwareType,DateUTC
2013-05-04 00:02:00,38.9,28.8,29.87,West,270,0.0,1.1,67,0.00,,,0.00,WUHU216HW,2013-05-04 05:02:00,
2013-05-04 00:07:00,38.7,29.0,29.87,SW,225,0.2,1.1,68,0.00,,,0.00,WUHU216HW,2013-05-04 05:07:00,
2013-05-04 00:12:00,38.5,28.8,29.87,West,270,0.0,1.1,68,0.00,,,0.00,WUHU216HW,2013-05-04 05:12:00,
2013-05-04 00:17:00,38.5,29.3,29.86,West,270,0.7,0.9,69,0.00,,,0.00,WUHU216HW,2013-05-04 05:17:00,
2013-05-04 00:22:00,38.3,29.1,29.86,West,270,0.0,0.9,69,0.00,,,0.00,WUHU216HW,2013-05-04 05:22:00,
2013-05-04 00:27:00,38.2,29.3,29.86,West,270,0.0,0.7,70,0.00,,,0.00,WUHU216HW,2013-05-04 05:27:00,
2013-05-04 00:32:00,38.0,29.1,29.86,West,270,0.0,0.4,70,0.00,,,0.00,WUHU216HW,2013-05-04 05:32:00,
2013-05-04 00:37:00,37.8,29.0,29.86,West,270,0.0,0.0,70,0.00,,,0.00,WUHU216HW,2013-05-04 05:37:00,
2013-05-04 00:42:00,37.4,28.6,29.86,West,270,0.4,0.4,70,0.00,,,0.00,WUHU216HW,2013-05-04 05:42:00,
2013-05-04 00:47:00,37.3,28.4,29.86,West,270,0.0,0.7,70,0.00,,,0.00,WUHU216HW,2013-05-04 05:47:00,
2013-05-04 00:52:00,37.1,28.6,29.86,West,270,0.0,0.7,71,0.00,,,0.00,WUHU216HW,2013-05-04 05:52:00,
2013-05-04 00:57:00,37.1,28.6,29.86,West,270,0.0,0.4,71,0.00,,,0.00,WUHU216HW,2013-05-04 05:57:00,
2013-05-04 01:02:00,36.9,28.5,29.86,West,270,0.0,0.0,71,0.00,,,0.00,WUHU216HW,2013-05-04 06:02:00,
2013-05-04 01:07:00,36.7,28.3,29.86,West,270,0.0,0.0,71,0.00,,,0.00,WUHU216HW,2013-05-04 06:07:00,
2013-05-04 01:12:00,36.5,28.1,29.85,West,270,0.0,0.2,71,0.00,,,0.00,WUHU216HW,2013-05-04 06:12:00,
2013-05-04 01:17:00,36.4,28.2,29.85,West,270,0.0,0.2,72,0.00,,,0.00,WUHU216HW,2013-05-04 06:17:00,
2013-05-04 01:22:00,36.4,28.2,29.84,West,270,0.0,0.0,72,0.00,,,0.00,WUHU216HW,2013-05-04 06:22:00,
2013-05-04 01:27:00,36.4,28.2,29.84,West,270,0.0,0.0,72,0.00,,,0.00,WUHU216HW,2013-05-04 06:27:00,
2013-05-04 01:32:00,36.2,28.0,29.84,West,270,0.0,0.0,72,0.00,,,0.00,WUHU216HW,2013-05-04 06:32:00,
2013-05-04 01:37:00,36.0,27.8,29.84,West,270,0.0,0.2,72,0.00,,,0.00,WUHU216HW,2013-05-04 06:37:00,
2013-05-04 01:42:00,36.0,28.2,29.84,West,270,0.0,0.2,73,0.00,,,0.00,WUHU216HW,2013-05-04 06:42:00,
2013-05-04 01:47:00,35.8,28.0,29.84,West,270,0.0,0.2,73,0.00,,,0.00,WUHU216HW,2013-05-04 06:47:00,
2013-05-04 01:52:00,35.6,27.8,29.84,West,270,0.0,0.0,73,0.00,,,0.00,WUHU216HW,2013-05-04 06:52:00,
2013-05-04 01:57:00,35.6,27.8,29.83,West,270,0.0,0.0,73,0.00,,,0.00,WUHU216HW,2013-05-04 06:57:00,
2013-05-04 02:02:00,35.5,27.6,29.83,West,270,0.0,0.0,73,0.00,,,0.00,WUHU216HW,2013-05-04 07:02:00,
2013-05-04 02:07:00,35.3,27.5,29.83,West,270,0.0,0.0,73,0.00,,,0.00,WUHU216HW,2013-05-04 07:07:00,
2013-05-04 02:12:00,35.3,27.5,29.83,NE,45,0.7,0.7,73,0.00,,,0.00,WUHU216HW,2013-05-04 07:12:00,
2013-05-04 02:17:00,35.3,27.7,29.83,NE,45,0.0,0.7,74,0.00,,,0.00,WUHU216HW,2013-05-04 07:17:00,
2013-05-04 02:22:00,35.3,27.7,29.82,NE,45,0.0,0.7,74,0.00,,,0.00,WUHU216HW,2013-05-04 07:22:00,
2013-05-04 02:27:00,35.3,27.7,29.82,NE,45,0.0,0.4,74,0.00,,,0.00,WUHU216HW,2013-05-04 07:27:00,
2013-05-04 02:32:00,35.1,27.5,29.82,NE,45,0.0,0.0,74,0.00,,,0.00,WUHU216HW,2013-05-04 07:32:00,
2013-05-04 02:37:00,34.9,27.4,29.81,NE,45,0.0,0.0,74,0.00,,,0.00,WUHU216HW,2013-05-04 07:37:00,
2013-05-04 02:42:00,34.9,27.4,29.81,NE,45,0.0,0.0,74,0.00,,,0.00,WUHU216HW,2013-05-04 07:42:00,
2013-05-04 02:47:00,34.6,27.0,29.81,NE,45,0.0,0.0,74,0.00,,,0.00,WUHU216HW,2013-05-04 07:47:00,
2013-05-04 02:52:00,34.4,26.8,29.81,NE,45,0.0,0.0,74,0.00,,,0.00,WUHU216HW,2013-05-04 07:52:00,
2013-05-04 02:57:00,34.4,27.2,29.81,NE,45,0.0,0.0,75,0.00,,,0.00,WUHU216HW,2013-05-04 07:57:00,
2013-05-04 03:02:00,34.4,27.2,29.81,NE,45,0.0,0.0,75,0.00,,,0.00,WUHU216HW,2013-05-04 08:02:00,
2013-05-04 03:07:00,34.2,27.4,29.80,NE,45,0.0,0.0,76,0.00,,,0.00,WUHU216HW,2013-05-04 08:07:00,
2013-05-04 03:12:00,34.2,27.0,29.80,NE,45,0.7,1.1,75,0.00,,,0.00,WUHU216HW,2013-05-04 08:12:00,
2013-05-04 03:17:00,34.4,27.6,29.80,NE,45,0.0,1.1,76,0.00,,,0.00,WUHU216HW,2013-05-04 08:17:00,
2013-05-04 03:22:00,34.4,27.6,29.80,NE,45,0.0,0.4,76,0.00,,,0.00,WUHU216HW,2013-05-04 08:22:00,
2013-05-04 03:27:00,34.2,27.4,29.80,NE,45,0.0,0.4,76,0.00,,,0.00,WUHU216HW,2013-05-04 08:27:00,
2013-05-04 03:32:00,34.2,27.4,29.80,NE,45,0.0,0.2,76,0.00,,,0.00,WUHU216HW,2013-05-04 08:32:00,
2013-05-04 03:37:00,34.2,27.4,29.80,NE,45,0.0,0.2,76,0.00,,,0.00,WUHU216HW,2013-05-04 08:37:00,
2013-05-04 03:42:00,34.4,27.8,29.79,NE,45,0.0,0.2,77,0.00,,,0.00,WUHU216HW,2013-05-04 08:42:00,
2013-05-04 03:47:00,34.4,27.8,29.80,NE,45,0.0,0.2,77,0.00,,,0.00,WUHU216HW,2013-05-04 08:47:00,
2013-05-04 03:52:00,34.4,27.8,29.79,NE,45,0.0,0.2,77,0.00,,,0.00,WUHU216HW,2013-05-04 08:52:00,
2013-05-04 03:57:00,34.2,27.6,29.79,NE,45,0.0,0.0,77,0.00,,,0.00,WUHU216HW,2013-05-04 08:57:00,
2013-05-04 04:02:00,34.0,27.5,29.80,NE,45,0.0,0.0,77,0.00,,,0.00,WUHU216HW,2013-05-04 09:02:00,
2013-05-04 04:07:00,34.0,27.5,29.79,NE,45,0.0,0.4,77,0.00,,,0.00,WUHU216HW,2013-05-04 09:07:00,
2013-05-04 04:12:00,34.2,27.6,29.80,NE,45,0.0,0.4,77,0.00,,,0.00,WUHU216HW,2013-05-04 09:12:00,
2013-05-04 04:17:00,34.2,27.6,29.80,NE,45,0.0,0.7,77,0.00,,,0.00,WUHU216HW,2013-05-04 09:17:00,
2013-05-04 04:22:00,34.2,27.6,29.79,NE,45,0.7,0.7,77,0.00,,,0.00,WUHU216HW,2013-05-04 09:22:00,
2013-05-04 04:27:00,34.2,27.6,29.79,NNW,338,0.4,0.9,77,0.00,,,0.00,WUHU216HW,2013-05-04 09:27:00,
2013-05-04 04:32:00,34.6,28.0,29.79,NNW,338,0.0,0.9,77,0.00,,,0.00,WUHU216HW,2013-05-04 09:32:00,
2013-05-04 04:37:00,34.6,28.4,29.79,NNW,338,0.0,0.0,78,0.00,,,0.00,WUHU216HW,2013-05-04 09:37:00,
2013-05-04 04:42:00,34.2,27.6,29.79,NNW,338,0.0,0.0,77,0.00,,,0.00,WUHU216HW,2013-05-04 09:42:00,
2013-05-04 04:47:00,34.2,27.6,29.79,NNW,338,0.0,0.0,77,0.00,,,0.00,WUHU216HW,2013-05-04 09:47:00,
2013-05-04 04:52:00,34.2,27.6,29.79,NNW,338,0.0,0.0,77,0.00,,,0.00,WUHU216HW,2013-05-04 09:52:00,
2013-05-04 04:57:00,34.2,27.6,29.78,NNW,338,0.0,0.4,77,0.00,,,0.00,WUHU216HW,2013-05-04 09:57:00,
2013-05-04 05:02:00,34.4,28.2,29.79,NNW,338,0.0,0.4,78,0.00,,,0.00,WUHU216HW,2013-05-04 10:02:00,
2013-05-04 05:07:00,34.4,28.2,29.79,NNW,338,0.0,0.4,78,0.00,,,0.00,WUHU216HW,2013-05-04 10:07:00,
2013-05-04 05:12:00,34.2,28.0,29.79,NNW,338,0.0,0.4,78,0.00,,,0.00,WUHU216HW,2013-05-04 10:12:00,
2013-05-04 05:17:00,34.2,28.0,29.79,NNW,338,0.0,0.0,78,0.00,,,0.00,WUHU216HW,2013-05-04 10:17:00,
2013-05-04 05:22:00,34.2,28.0,29.79,NNW,338,0.0,0.0,78,0.00,,,0.00,WUHU216HW,2013-05-04 10:22:00,
2013-05-04 05:27:00,34.0,27.8,29.79,West,270,0.0,1.1,78,0.00,,,0.00,WUHU216HW,2013-05-04 10:27:00,
2013-05-04 05:32:00,33.8,27.6,29.79,West,270,0.0,1.1,78,0.00,,,0.00,WUHU216HW,2013-05-04 10:32:00,
2013-05-04 05:37:00,33.5,27.3,29.79,West,270,0.0,0.4,78,0.00,,,0.00,WUHU216HW,2013-05-04 10:37:00,
2013-05-04 05:42:00,33.3,27.1,29.79,West,270,0.0,0.2,78,0.00,,,0.00,WUHU216HW,2013-05-04 10:42:00,
2013-05-04 05:47:00,33.3,27.1,29.79,West,270,0.0,0.4,78,0.00,,,0.00,WUHU216HW,2013-05-04 10:47:00,
2013-05-04 05:52:00,33.3,27.5,29.79,West,270,0.0,0.9,79,0.00,,,0.00,WUHU216HW,2013-05-04 10:52:00,
2013-05-04 05:57:00,33.1,27.3,29.79,West,270,0.0,0.9,79,0.00,,,0.00,WUHU216HW,2013-05-04 10:57:00,
2013-05-04 06:02:00,32.9,27.1,29.79,West,270,0.0,0.0,79,0.00,,,0.00,WUHU216HW,2013-05-04 11:02:00,
2013-05-04 06:07:00,32.9,27.1,29.79,West,270,0.0,0.0,79,0.00,,,0.00,WUHU216HW,2013-05-04 11:07:00,
2013-05-04 06:12:00,32.9,27.5,29.79,West,270,0.0,0.7,80,0.00,,,0.00,WUHU216HW,2013-05-04 11:12:00,
2013-05-04 06:17:00,32.9,27.5,29.79,West,270,0.0,0.7,80,0.00,,,0.00,WUHU216HW,2013-05-04 11:17:00,
2013-05-04 06:22:00,32.8,27.3,29.79,West,270,0.0,0.4,80,0.00,,,0.00,WUHU216HW,2013-05-04 11:22:00,
2013-05-04 06:27:00,32.8,27.3,29.79,West,270,0.0,0.4,80,0.00,,,0.00,WUHU216HW,2013-05-04 11:27:00,
2013-05-04 06:32:00,32.8,27.5,29.79,WNW,293,0.0,0.4,81,0.00,,,0.00,WUHU216HW,2013-05-04 11:32:00,
2013-05-04 06:37:00,32.8,27.3,29.79,WNW,293,0.0,0.4,80,0.00,,,0.00,WUHU216HW,2013-05-04 11:37:00,
2013-05-04 06:42:00,32.8,27.5,29.79,WNW,293,0.9,0.9,81,0.00,,,0.00,WUHU216HW,2013-05-04 11:42:00,
2013-05-04 06:47:00,32.8,27.5,29.79,WNW,293,0.4,0.9,81,0.00,,,0.00,WUHU216HW,2013-05-04 11:47:00,
2013-05-04 06:52:00,32.9,27.7,29.79,WNW,293,0.0,0.7,81,0.00,,,0.00,WUHU216HW,2013-05-04 11:52:00,
2013-05-04 06:57:00,32.9,27.7,29.80,WNW,293,0.0,0.0,81,0.00,,,0.00,WUHU216HW,2013-05-04 11:57:00,
2013-05-04 07:02:00,33.1,27.9,29.80,WNW,293,0.0,0.0,81,0.00,,,0.00,WUHU216HW,2013-05-04 12:02:00,
2013-05-04 07:07:00,33.5,28.3,29.80,WNW,293,0.0,0.0,81,0.00,,,0.00,WUHU216HW,2013-05-04 12:07:00,
2013-05-04 07:12:00,33.7,28.4,29.80,WNW,293,0.0,0.2,81,0.00,,,0.00,WUHU216HW,2013-05-04 12:12:00,
2013-05-04 07:17:00,33.8,28.5,29.81,WNW,293,0.0,0.2,81,0.00,,,0.00,WUHU216HW,2013-05-04 12:17:00,
2013-05-04 07:22:00,34.4,29.3,29.81,WNW,293,0.0,0.0,82,0.00,,,0.00,WUHU216HW,2013-05-04 12:22:00,
2013-05-04 07:27:00,34.9,29.9,29.81,WNW,293,0.0,0.2,82,0.00,,,0.00,WUHU216HW,2013-05-04 12:27:00,
2013-05-04 07:32:00,36.2,31.1,29.81,WNW,293,0.7,0.7,82,0.00,,,0.00,WUHU216HW,2013-05-04 12:32:00,
2013-05-04 07:37:00,37.4,32.4,29.81,WNW,293,0.2,0.7,82,0.00,,,0.00,WUHU216HW,2013-05-04 12:37:00,
2013-05-04 07:42:00,41.8,36.9,29.81,WNW,293,0.0,0.7,83,0.00,,,0.00,WUHU216HW,2013-05-04 12:42:00,
2013-05-04 07:47:00,47.2,41.7,29.81,WNW,293,0.0,0.7,81,0.00,,,0.00,WUHU216HW,2013-05-04 12:47:00,
2013-05-04 07:52:00,50.9,44.0,29.81,WNW,293,0.0,0.0,77,0.00,,,0.00,WUHU216HW,2013-05-04 12:52:00,
2013-05-04 07:57:00,56.9,46.8,29.81,WSW,248,0.0,0.4,69,0.00,,,0.00,WUHU216HW,2013-05-04 12:57:00,
2013-05-04 08:02:00,60.5,48.7,29.81,West,270,0.0,0.7,65,0.00,,,0.00,WUHU216HW,2013-05-04 13:02:00,
2013-05-04 08:04:00,61.0,49.2,29.81,West,270,0.0,0.7,65,0.00,,,0.00,WUHU216HW,2013-05-04 13:04:00,
2013-05-04 08:09:00,64.3,49.1,29.81,WSW,248,1.3,2.9,58,0.00,,,0.00,WUHU216HW,2013-05-04 13:09:00,
2013-05-04 08:14:00,65.9,46.2,29.81,SW,225,3.1,4.5,49,0.00,,,0.00,WUHU216HW,2013-05-04 13:14:00,
2013-05-04 08:19:00,67.3,46.4,29.81,WSW,248,3.6,6.9,47,0.00,,,0.00,WUHU216HW,2013-05-04 13:19:00,
2013-05-04 08:24:00,69.1,47.3,29.81,SW,225,2.5,6.9,46,0.00,,,0.00,WUHU216HW,2013-05-04 13:24:00,
2013-05-04 08:29:00,70.2,44.8,29.81,WSW,248,5.4,7.6,40,0.00,,,0.00,WUHU216HW,2013-05-04 13:29:00,
2013-05-04 08:34:00,70.2,44.0,29.81,SW,225,4.9,7.6,39,0.00,,,0.00,WUHU216HW,2013-05-04 13:34:00,
2013-05-04 08:39:00,71.8,42.6,29.81,WNW,293,6.3,6.3,35,0.00,,,0.00,WUHU216HW,2013-05-04 13:39:00,
2013-05-04 08:44:00,71.8,41.8,29.81,West,270,4.0,7.6,34,0.00,,,0.00,WUHU216HW,2013-05-04 13:44:00,
2013-05-04 08:49:00,72.9,41.2,29.81,West,270,4.7,9.2,32,0.00,,,0.00,WUHU216HW,2013-05-04 13:49:00,
2013-05-04 08:54:00,71.8,39.6,29.81,SW,225,6.3,12.3,31,0.00,,,0.00,WUHU216HW,2013-05-04 13:54:00,
2013-05-04 08:59:00,71.3,39.2,29.81,West,270,10.1,12.3,31,0.00,,,0.00,WUHU216HW,2013-05-04 13:59:00,
2013-05-04 09:04:00,71.6,39.4,29.81,WSW,248,3.6,11.4,31,0.00,,,0.00,WUHU216HW,2013-05-04 14:04:00,
2013-05-04 09:09:00,72.2,38.1,29.81,SW,225,13.2,13.2,29,0.00,,,0.00,WUHU216HW,2013-05-04 14:09:00,
2013-05-04 09:14:00,71.6,38.7,29.81,SW,225,10.3,13.2,30,0.00,,,0.00,WUHU216HW,2013-05-04 14:14:00,
2013-05-04 09:19:00,72.2,38.1,29.81,WSW,248,6.5,11.4,29,0.00,,,0.00,WUHU216HW,2013-05-04 14:19:00,
2013-05-04 09:24:00,72.4,38.3,29.81,WSW,248,8.9,11.4,29,0.00,,,0.00,WUHU216HW,2013-05-04 14:24:00,
2013-05-04 09:29:00,73.6,38.3,29.81,West,270,13.0,13.0,28,0.00,,,0.00,WUHU216HW,2013-05-04 14:29:00,
2013-05-04 09:34:00,74.2,38.8,29.81,SW,225,9.6,13.0,28,0.00,,,0.00,WUHU216HW,2013-05-04 14:34:00,
2013-05-04 09:39:00,74.0,37.6,29.81,West,270,11.4,14.3,27,0.00,,,0.00,WUHU216HW,2013-05-04 14:39:00,
2013-05-04 09:44:00,74.2,37.7,29.81,WSW,248,13.0,14.3,27,0.00,,,0.00,WUHU216HW,2013-05-04 14:44:00,
2013-05-04 09:49:00,74.3,36.9,29.81,WSW,248,14.5,14.5,26,0.00,,,0.00,WUHU216HW,2013-05-04 14:49:00,
2013-05-04 09:54:00,73.8,36.5,29.81,SW,225,10.3,14.5,26,0.00,,,0.00,WUHU216HW,2013-05-04 14:54:00,
2013-05-04 09:59:00,74.5,37.1,29.81,WSW,248,15.2,15.2,26,0.00,,,0.00,WUHU216HW,2013-05-04 14:59:00,
2013-05-04 10:03:00,74.9,39.4,29.81,West,270,11.4,15.2,28,0.00,,,0.00,WUHU216HW,2013-05-04 15:03:00,
2013-05-04 10:08:00,75.2,37.6,29.80,WSW,248,11.0,14.3,26,0.00,,,0.00,WUHU216HW,2013-05-04 15:08:00,
2013-05-04 10:13:00,76.9,39.1,29.80,WSW,248,6.3,15.9,26,0.00,,,0.00,WUHU216HW,2013-05-04 15:13:00,
2013-05-04 10:19:00,78.1,39.1,29.81,West,270,8.7,15.9,25,0.00,,,0.00,WUHU216HW,2013-05-04 15:19:00,
2013-05-04 10:23:00,78.7,39.4,29.81,WSW,248,13.0,13.0,25,0.00,,,0.00,WUHU216HW,2013-05-04 15:23:00,
2013-05-04 10:28:00,79.2,38.9,29.81,WSW,248,4.9,13.0,24,0.00,,,0.00,WUHU216HW,2013-05-04 15:28:00,
2013-05-04 10:33:00,79.6,39.3,29.81,WSW,248,10.1,11.6,24,0.00,,,0.00,WUHU216HW,2013-05-04 15:33:00,
2013-05-04 10:38:00,80.3,38.8,29.81,West,270,9.2,11.4,23,0.00,,,0.00,WUHU216HW,2013-05-04 15:38:00,
2013-05-04 10:43:00,81.0,40.5,29.81,NW,315,7.8,11.4,24,0.00,,,0.00,WUHU216HW,2013-05-04 15:43:00,
2013-05-04 10:48:00,81.2,39.6,29.81,West,270,4.0,12.5,23,0.00,,,0.00,WUHU216HW,2013-05-04 15:48:00,
2013-05-04 10:53:00,81.9,39.1,29.81,WSW,248,8.1,12.5,22,0.00,,,0.00,WUHU216HW,2013-05-04 15:53:00,
2013-05-04 10:58:00,82.3,39.4,29.81,SW,225,7.8,10.7,22,0.00,,,0.00,WUHU216HW,2013-05-04 15:58:00,
2013-05-04 11:03:00,82.8,39.8,29.81,SW,225,5.4,10.7,22,0.00,,,0.00,WUHU216HW,2013-05-04 16:03:00,
2013-05-04 11:08:00,82.4,38.5,29.81,SSW,203,10.7,13.2,21,0.00,,,0.00,WUHU216HW,2013-05-04 16:08:00,
2013-05-04 11:13:00,82.4,40.6,29.81,WSW,248,6.3,13.2,23,0.00,,,0.00,WUHU216HW,2013-05-04 16:13:00,
2013-05-04 11:18:00,83.9,41.8,29.81,SW,225,8.1,9.4,23,0.00,,,0.00,WUHU216HW,2013-05-04 16:18:00,
2013-05-04 11:23:00,85.7,42.2,29.81,WSW,248,6.9,8.1,22,0.00,,,0.00,WUHU216HW,2013-05-04 16:23:00,
2013-05-04 11:28:00,85.9,41.2,29.81,SW,225,6.9,7.6,21,0.00,,,0.00,WUHU216HW,2013-05-04 16:28:00,
2013-05-04 11:33:00,86.2,42.7,29.81,WSW,248,4.0,7.6,22,0.00,,,0.00,WUHU216HW,2013-05-04 16:33:00,
2013-05-04 11:38:00,87.5,43.7,29.81,North,0,3.8,5.4,22,0.00,,,0.00,WUHU216HW,2013-05-04 16:38:00,
2013-05-04 11:43:00,87.3,39.7,29.81,WSW,248,8.1,9.8,19,0.00,,,0.00,WUHU216HW,2013-05-04 16:43:00,
2013-05-04 11:48:00,86.8,42.0,29.81,WSW,248,6.9,9.8,21,0.00,,,0.00,WUHU216HW,2013-05-04 16:48:00,
2013-05-04 11:53:00,86.4,40.7,29.81,WSW,248,9.4,11.0,20,0.00,,,0.00,WUHU216HW,2013-05-04 16:53:00,
2013-05-04 11:58:00,86.0,38.6,29.80,West,270,7.2,13.0,19,0.00,,,0.00,WUHU216HW,2013-05-04 16:58:00,
2013-05-04 12:03:00,86.9,39.4,29.80,WSW,248,8.1,13.0,19,0.00,,,0.00,WUHU216HW,2013-05-04 17:03:00,
2013-05-04 12:08:00,87.1,39.6,29.80,West,270,6.3,8.7,19,0.00,,,0.00,WUHU216HW,2013-05-04 17:08:00,
2013-05-04 12:13:00,87.1,39.6,29.80,WSW,248,6.7,8.7,19,0.00,,,0.00,WUHU216HW,2013-05-04 17:13:00,
2013-05-04 12:18:00,88.4,40.7,29.79,West,270,1.8,7.8,19,0.00,,,0.00,WUHU216HW,2013-05-04 17:18:00,
2013-05-04 12:23:00,88.6,39.1,29.79,SW,225,11.0,11.4,18,0.00,,,0.00,WUHU216HW,2013-05-04 17:23:00,
2013-05-04 12:28:00,87.7,40.1,29.79,North,0,2.0,11.4,19,0.00,,,0.00,WUHU216HW,2013-05-04 17:28:00,
2013-05-04 12:33:00,88.2,40.5,29.79,NNW,338,2.5,10.5,19,0.00,,,0.00,WUHU216HW,2013-05-04 17:33:00,
2013-05-04 12:38:00,87.7,38.4,29.79,West,270,8.5,8.5,18,0.00,,,0.00,WUHU216HW,2013-05-04 17:38:00,
2013-05-04 12:43:00,88.4,38.9,29.79,WSW,248,4.3,9.2,18,0.00,,,0.00,WUHU216HW,2013-05-04 17:43:00,
2013-05-04 12:48:00,87.7,38.4,29.79,WSW,248,8.7,11.9,18,0.00,,,0.00,WUHU216HW,2013-05-04 17:48:00,
2013-05-04 12:53:00,87.3,39.7,29.78,NE,45,2.9,11.9,19,0.00,,,0.00,WUHU216HW,2013-05-04 17:53:00,
2013-05-04 12:58:00,87.8,40.2,29.78,SSE,158,1.8,8.1,19,0.00,,,0.00,WUHU216HW,2013-05-04 17:58:00,
2013-05-04 13:03:00,88.6,37.4,29.77,NW,315,6.9,6.9,17,0.00,,,0.00,WUHU216HW,2013-05-04 18:03:00,
2013-05-04 13:08:00,88.4,38.9,29.77,SW,225,6.0,6.9,18,0.00,,,0.00,WUHU216HW,2013-05-04 18:08:00,
2013-05-04 13:13:00,87.5,38.2,29.77,West,270,1.3,11.2,18,0.00,,,0.00,WUHU216HW,2013-05-04 18:13:00,
2013-05-04 13:18:00,88.2,38.8,29.77,SW,225,3.4,11.2,18,0.00,,,0.00,WUHU216HW,2013-05-04 18:18:00,
2013-05-04 13:23:00,87.5,38.2,29.77,SW,225,1.8,11.9,18,0.00,,,0.00,WUHU216HW,2013-05-04 18:23:00,
2013-05-04 13:28:00,87.1,37.9,29.76,West,270,6.7,11.9,18,0.00,,,0.00,WUHU216HW,2013-05-04 18:28:00,
2013-05-04 13:33:00,87.1,37.9,29.76,WSW,248,5.8,11.9,18,0.00,,,0.00,WUHU216HW,2013-05-04 18:33:00,
2013-05-04 13:38:00,88.6,40.8,29.76,North,0,3.6,11.9,19,0.00,,,0.00,WUHU216HW,2013-05-04 18:38:00,
2013-05-04 13:43:00,89.6,38.2,29.76,WNW,293,2.2,5.4,17,0.00,,,0.00,WUHU216HW,2013-05-04 18:43:00,
2013-05-04 13:48:00,89.8,38.3,29.76,SSE,158,0.4,5.4,17,0.00,,,0.00,WUHU216HW,2013-05-04 18:48:00,
2013-05-04 13:53:00,90.4,38.7,29.76,North,0,4.7,5.4,17,0.00,,,0.00,WUHU216HW,2013-05-04 18:53:00,
2013-05-04 13:58:00,90.0,38.4,29.76,NNW,338,1.8,4.9,17,0.00,,,0.00,WUHU216HW,2013-05-04 18:58:00,
2013-05-04 14:03:00,90.0,38.4,29.76,NNW,338,2.9,6.0,17,0.00,,,0.00,WUHU216HW,2013-05-04 19:03:00,
2013-05-04 14:08:00,90.4,38.7,29.75,NNW,338,3.4,6.0,17,0.00,,,0.00,WUHU216HW,2013-05-04 19:08:00,
2013-05-04 14:13:00,90.7,39.0,29.75,NW,315,5.4,5.4,17,0.00,,,0.00,WUHU216HW,2013-05-04 19:13:00,
2013-05-04 14:18:00,90.4,37.0,29.75,WSW,248,3.4,5.4,16,0.00,,,0.00,WUHU216HW,2013-05-04 19:18:00,
2013-05-04 14:23:00,89.3,36.1,29.75,WSW,248,3.4,4.0,16,0.00,,,0.00,WUHU216HW,2013-05-04 19:23:00,
2013-05-04 14:28:00,89.5,34.5,29.75,West,270,6.7,10.3,15,0.00,,,0.00,WUHU216HW,2013-05-04 19:28:00,
2013-05-04 14:33:00,88.9,35.8,29.75,SSE,158,1.1,10.3,16,0.00,,,0.00,WUHU216HW,2013-05-04 19:33:00,
2013-05-04 14:38:00,89.3,36.1,29.75,West,270,4.0,4.9,16,0.00,,,0.00,WUHU216HW,2013-05-04 19:38:00,
2013-05-04 14:43:00,89.8,34.8,29.74,NNE,23,2.7,4.7,15,0.00,,,0.00,WUHU216HW,2013-05-04 19:43:00,
2013-05-04 14:48:00,88.6,35.6,29.75,SW,225,2.5,4.3,16,0.00,,,0.00,WUHU216HW,2013-05-04 19:48:00,
2013-05-04 14:53:00,87.5,34.8,29.74,NNW,338,2.5,5.4,16,0.00,,,0.00,WUHU216HW,2013-05-04 19:53:00,
2013-05-04 14:58:00,86.8,35.8,29.74,West,270,3.4,5.4,17,0.00,,,0.00,WUHU216HW,2013-05-04 19:58:00,
2013-05-04 15:03:00,86.0,35.2,29.74,West,270,1.8,6.5,17,0.00,,,0.00,WUHU216HW,2013-05-04 20:03:00,
2013-05-04 15:08:00,85.9,35.0,29.74,NNW,338,4.0,6.5,17,0.00,,,0.00,WUHU216HW,2013-05-04 20:08:00,
2013-05-04 15:13:00,85.7,36.6,29.73,SW,225,2.2,6.3,18,0.00,,,0.00,WUHU216HW,2013-05-04 20:13:00,
2013-05-04 15:19:00,85.7,36.6,29.73,West,270,0.9,6.3,18,0.00,,,0.00,WUHU216HW,2013-05-04 20:19:00,
2013-05-04 15:24:00,85.3,36.4,29.73,North,0,1.8,3.1,18,0.00,,,0.00,WUHU216HW,2013-05-04 20:24:00,
2013-05-04 15:29:00,85.1,36.2,29.73,North,0,2.5,3.1,18,0.00,,,0.00,WUHU216HW,2013-05-04 20:29:00,
2013-05-04 15:34:00,84.6,35.7,29.72,WSW,248,1.8,3.1,18,0.00,,,0.00,WUHU216HW,2013-05-04 20:34:00,
2013-05-04 15:39:00,84.4,35.7,29.72,SW,225,4.0,8.3,18,0.00,,,0.00,WUHU216HW,2013-05-04 20:39:00,
2013-05-04 15:44:00,84.2,33.8,29.72,SW,225,5.4,8.3,17,0.00,,,0.00,WUHU216HW,2013-05-04 20:44:00,
2013-05-04 15:49:00,83.9,35.2,29.71,WSW,248,2.7,5.4,18,0.00,,,0.00,WUHU216HW,2013-05-04 20:49:00,
2013-05-04 15:54:00,84.2,35.5,29.71,WNW,293,4.0,5.4,18,0.00,,,0.00,WUHU216HW,2013-05-04 20:54:00,
2013-05-04 15:59:00,84.1,33.6,29.71,West,270,5.4,8.7,17,0.00,,,0.00,WUHU216HW,2013-05-04 20:59:00,
2013-05-04 16:04:00,83.9,35.2,29.71,NNE,23,2.7,8.7,18,0.00,,,0.00,WUHU216HW,2013-05-04 21:04:00,
2013-05-04 16:09:00,84.2,35.5,29.70,West,270,2.9,5.4,18,0.00,,,0.00,WUHU216HW,2013-05-04 21:09:00,
2013-05-04 16:14:00,84.4,35.7,29.71,WSW,248,1.1,3.8,18,0.00,,,0.00,WUHU216HW,2013-05-04 21:14:00,
2013-05-04 16:19:00,84.4,35.7,29.70,West,270,5.4,6.9,18,0.00,,,0.00,WUHU216HW,2013-05-04 21:19:00,
2013-05-04 16:24:00,84.2,33.8,29.70,WSW,248,1.6,6.9,17,0.00,,,0.00,WUHU216HW,2013-05-04 21:24:00,
2013-05-04 16:29:00,83.5,33.2,29.70,NNW,338,2.7,4.7,17,0.00,,,0.00,WUHU216HW,2013-05-04 21:29:00,
2013-05-04 16:34:00,83.2,33.0,29.70,WSW,248,6.5,6.5,17,0.00,,,0.00,WUHU216HW,2013-05-04 21:34:00,
2013-05-04 16:39:00,82.4,34.0,29.70,West,270,4.5,6.5,18,0.00,,,0.00,WUHU216HW,2013-05-04 21:39:00,
2013-05-04 16:44:00,82.4,35.7,29.69,West,270,5.4,5.4,19,0.00,,,0.00,WUHU216HW,2013-05-04 21:44:00,
2013-05-04 16:49:00,82.4,34.0,29.69,NW,315,1.1,5.4,18,0.00,,,0.00,WUHU216HW,2013-05-04 21:49:00,
2013-05-04 16:54:00,82.6,34.2,29.69,WSW,248,6.0,7.2,18,0.00,,,0.00,WUHU216HW,2013-05-04 21:54:00,
2013-05-04 16:59:00,82.3,35.7,29.70,WSW,248,5.8,7.2,19,0.00,,,0.00,WUHU216HW,2013-05-04 21:59:00,
2013-05-04 17:04:00,82.4,35.7,29.70,WNW,293,1.8,6.3,19,0.00,,,0.00,WUHU216HW,2013-05-04 22:04:00,
2013-05-04 17:09:00,82.4,35.7,29.70,West,270,4.7,4.7,19,0.00,,,0.00,WUHU216HW,2013-05-04 22:09:00,
2013-05-04 17:14:00,82.1,35.5,29.69,WSW,248,2.0,4.7,19,0.00,,,0.00,WUHU216HW,2013-05-04 22:14:00,
2013-05-04 17:19:00,82.3,35.7,29.70,WSW,248,3.6,4.0,19,0.00,,,0.00,WUHU216HW,2013-05-04 22:19:00,
2013-05-04 17:24:00,82.6,35.9,29.69,WNW,293,1.1,4.7,19,0.00,,,0.00,WUHU216HW,2013-05-04 22:24:00,
2013-05-04 17:29:00,82.8,34.4,29.70,WNW,293,1.6,5.6,18,0.00,,,0.00,WUHU216HW,2013-05-04 22:29:00,
2013-05-04 17:34:00,82.4,35.7,29.70,WNW,293,2.5,6.9,19,0.00,,,0.00,WUHU216HW,2013-05-04 22:34:00,
2013-05-04 17:39:00,81.7,33.5,29.69,WNW,293,2.5,6.9,18,0.00,,,0.00,WUHU216HW,2013-05-04 22:39:00,
2013-05-04 17:44:00,81.7,33.5,29.70,WSW,248,1.8,4.0,18,0.00,,,0.00,WUHU216HW,2013-05-04 22:44:00,
2013-05-04 17:49:00,81.2,33.0,29.69,WNW,293,2.0,2.5,18,0.00,,,0.00,WUHU216HW,2013-05-04 22:49:00,
2013-05-04 17:54:00,81.0,33.0,29.69,ENE,68,0.9,5.4,18,0.00,,,0.00,WUHU216HW,2013-05-04 22:54:00,
2013-05-04 17:59:00,80.6,34.3,29.69,WNW,293,2.5,5.4,19,0.00,,,0.00,WUHU216HW,2013-05-04 22:59:00,
2013-05-04 18:04:00,80.3,34.0,29.69,West,270,2.0,2.5,19,0.00,,,0.00,WUHU216HW,2013-05-04 23:04:00,
2013-05-04 18:09:00,80.6,34.3,29.69,West,270,2.7,3.4,19,0.00,,,0.00,WUHU216HW,2013-05-04 23:09:00,
2013-05-04 18:14:00,80.6,32.6,29.69,ENE,68,1.8,3.4,18,0.00,,,0.00,WUHU216HW,2013-05-04 23:14:00,
2013-05-04 18:19:00,81.0,34.6,29.69,West,270,1.1,4.0,19,0.00,,,0.00,WUHU216HW,2013-05-04 23:19:00,
2013-05-04 18:24:00,80.5,34.1,29.69,WSW,248,2.9,4.7,19,0.00,,,0.00,WUHU216HW,2013-05-04 23:24:00,
2013-05-04 18:29:00,79.6,31.7,29.69,WNW,293,0.4,4.7,18,0.00,,,0.00,WUHU216HW,2013-05-04 23:29:00,
2013-05-04 18:34:00,79.2,33.0,29.69,NW,315,1.8,3.4,19,0.00,,,0.00,WUHU216HW,2013-05-04 23:34:00,
2013-05-04 18:39:00,78.7,32.6,29.68,NNW,338,0.2,1.8,19,0.00,,,0.00,WUHU216HW,2013-05-04 23:39:00,
2013-05-04 18:44:00,78.3,32.3,29.68,NNW,338,0.0,1.8,19,0.00,,,0.00,WUHU216HW,2013-05-04 23:44:00,
2013-05-04 18:49:00,78.3,35.0,29.68,NNE,23,1.1,1.1,21,0.00,,,0.00,WUHU216HW,2013-05-04 23:49:00,
2013-05-04 18:54:00,78.1,34.8,29.68,NNW,338,0.0,1.1,21,0.00,,,0.00,WUHU216HW,2013-05-04 23:54:00,
2013-05-04 18:59:00,77.8,34.6,29.68,NNW,338,0.0,1.1,21,0.00,,,0.00,WUHU216HW,2013-05-04 23:59:00,
2013-05-04 19:04:00,77.4,35.3,29.68,West,270,0.0,2.2,22,0.00,,,0.00,WUHU216HW,2013-05-05 00:04:00,
2013-05-04 19:09:00,77.0,36.1,29.68,West,270,0.0,2.2,23,0.00,,,0.00,WUHU216HW,2013-05-05 00:09:00,
2013-05-04 19:14:00,76.7,36.8,29.69,West,270,0.0,0.4,24,0.00,,,0.00,WUHU216HW,2013-05-05 00:14:00,
2013-05-04 19:19:00,76.1,37.4,29.69,West,270,0.0,0.4,25,0.00,,,0.00,WUHU216HW,2013-05-05 00:19:00,
2013-05-04 19:24:00,75.8,38.2,29.69,West,270,0.0,0.4,26,0.00,,,0.00,WUHU216HW,2013-05-05 00:24:00,
2013-05-04 19:29:00,75.1,39.5,29.69,West,270,0.0,0.9,28,0.00,,,0.00,WUHU216HW,2013-05-05 00:29:00,
2013-05-04 19:34:00,74.3,38.9,29.69,West,270,0.0,0.9,28,0.00,,,0.00,WUHU216HW,2013-05-05 00:34:00,
2013-05-04 19:39:00,73.8,39.4,29.69,West,270,0.0,0.2,29,0.00,,,0.00,WUHU216HW,2013-05-05 00:39:00,
2013-05-04 19:44:00,73.1,39.9,29.69,West,270,0.0,0.0,30,0.00,,,0.00,WUHU216HW,2013-05-05 00:44:00,
2013-05-04 19:49:00,72.5,40.1,29.70,West,270,0.0,0.0,31,0.00,,,0.00,WUHU216HW,2013-05-05 00:49:00,
2013-05-04 19:54:00,72.0,40.5,29.70,West,270,0.0,0.0,32,0.00,,,0.00,WUHU216HW,2013-05-05 00:54:00,
2013-05-04 19:59:00,71.3,39.9,29.70,West,270,0.0,0.0,32,0.00,,,0.00,WUHU216HW,2013-05-05 00:59:00,
2013-05-04 20:04:00,70.6,40.0,29.70,West,270,0.0,0.0,33,0.00,,,0.00,WUHU216HW,2013-05-05 01:04:00,
2013-05-04 20:09:00,69.7,39.2,29.70,West,270,0.0,1.1,33,0.00,,,0.00,WUHU216HW,2013-05-05 01:09:00,
2013-05-04 20:14:00,68.8,39.1,29.70,West,270,0.0,1.1,34,0.00,,,0.00,WUHU216HW,2013-05-05 01:14:00,
2013-05-04 20:19:00,67.7,38.9,29.71,West,270,0.4,1.1,35,0.00,,,0.00,WUHU216HW,2013-05-05 01:19:00,
2013-05-04 20:24:00,67.0,39.0,29.71,West,270,2.0,2.0,36,0.00,,,0.00,WUHU216HW,2013-05-05 01:24:00,
2013-05-04 20:29:00,66.2,39.8,29.71,West,270,0.7,2.0,38,0.00,,,0.00,WUHU216HW,2013-05-05 01:29:00,
2013-05-04 20:34:00,65.3,39.7,29.71,West,270,0.0,2.0,39,0.00,,,0.00,WUHU216HW,2013-05-05 01:34:00,
2013-05-04 20:39:00,64.6,39.8,29.71,West,270,0.0,1.1,40,0.00,,,0.00,WUHU216HW,2013-05-05 01:39:00,
2013-05-04 20:44:00,64.1,39.9,29.72,West,270,0.0,0.2,41,0.00,,,0.00,WUHU216HW,2013-05-05 01:44:00,
2013-05-04 20:49:00,63.4,40.3,29.72,West,270,0.7,0.7,43,0.00,,,0.00,WUHU216HW,2013-05-05 01:49:00,
2013-05-04 20:54:00,62.6,40.3,29.72,West,270,0.7,0.7,44,0.00,,,0.00,WUHU216HW,2013-05-05 01:54:00,
2013-05-04 20:59:00,61.7,40.6,29.73,West,270,1.1,1.8,46,0.00,,,0.00,WUHU216HW,2013-05-05 01:59:00,
2013-05-04 21:04:00,61.0,40.6,29.73,WSW,248,1.1,1.8,47,0.00,,,0.00,WUHU216HW,2013-05-05 02:04:00,
2013-05-04 21:09:00,60.5,40.7,29.73,West,270,0.9,1.8,48,0.00,,,0.00,WUHU216HW,2013-05-05 02:09:00,
2013-05-04 21:14:00,59.8,40.0,29.73,West,270,1.1,1.1,48,0.00,,,0.00,WUHU216HW,2013-05-05 02:14:00,
2013-05-04 21:19:00,59.0,40.0,29.74,West,270,0.9,1.1,49,0.00,,,0.00,WUHU216HW,2013-05-05 02:19:00,
2013-05-04 21:24:00,58.7,40.1,29.74,West,270,0.0,1.3,50,0.00,,,0.00,WUHU216HW,2013-05-05 02:24:00,
2013-05-04 21:29:00,58.1,39.7,29.74,West,270,0.7,1.3,50,0.00,,,0.00,WUHU216HW,2013-05-05 02:29:00,
2013-05-04 21:34:00,58.0,39.5,29.75,WSW,248,0.0,1.8,50,0.00,,,0.00,WUHU216HW,2013-05-05 02:34:00,
2013-05-04 21:39:00,57.4,39.1,29.76,WSW,248,0.2,1.8,50,0.00,,,0.00,WUHU216HW,2013-05-05 02:39:00,
2013-05-04 21:44:00,57.1,38.7,29.76,WSW,248,0.4,0.4,50,0.00,,,0.00,WUHU216HW,2013-05-05 02:44:00,
2013-05-04 21:49:00,56.7,38.8,29.76,WSW,248,0.0,0.4,51,0.00,,,0.00,WUHU216HW,2013-05-05 02:49:00,
2013-05-04 21:54:00,56.3,38.9,29.76,WSW,248,0.0,0.7,52,0.00,,,0.00,WUHU216HW,2013-05-05 02:54:00,
2013-05-04 21:59:00,55.8,38.3,29.76,WSW,248,0.4,0.7,52,0.00,,,0.00,WUHU216HW,2013-05-05 02:59:00,
2013-05-04 22:04:00,55.4,38.5,29.76,WSW,248,0.0,1.3,53,0.00,,,0.00,WUHU216HW,2013-05-05 03:04:00,
2013-05-04 22:09:00,54.9,38.4,29.76,WSW,248,0.9,1.3,54,0.00,,,0.00,WUHU216HW,2013-05-05 03:09:00,
2013-05-04 22:14:00,54.4,38.0,29.76,West,270,0.7,1.6,54,0.00,,,0.00,WUHU216HW,2013-05-05 03:14:00,
2013-05-04 22:19:00,53.8,38.0,29.77,WSW,248,1.8,1.8,55,0.00,,,0.00,WUHU216HW,2013-05-05 03:19:00,
2013-05-04 22:24:00,53.5,38.1,29.77,West,270,1.1,1.8,56,0.00,,,0.00,WUHU216HW,2013-05-05 03:24:00,
2013-05-04 22:29:00,53.1,37.7,29.77,West,270,0.0,1.8,56,0.00,,,0.00,WUHU216HW,2013-05-05 03:29:00,
2013-05-04 22:34:00,52.7,37.5,29.77,West,270,0.0,1.6,56,0.00,,,0.00,WUHU216HW,2013-05-05 03:34:00,
2013-05-04 22:39:00,52.4,38.0,29.78,West,270,0.7,1.1,58,0.00,,,0.00,WUHU216HW,2013-05-05 03:39:00,
2013-05-04 22:44:00,52.0,37.6,29.77,West,270,0.9,1.1,58,0.00,,,0.00,WUHU216HW,2013-05-05 03:44:00,
2013-05-04 22:49:00,51.7,37.7,29.78,West,270,0.4,1.6,59,0.00,,,0.00,WUHU216HW,2013-05-05 03:49:00,
2013-05-04 22:54:00,51.3,37.5,29.78,West,270,0.4,1.6,59,0.00,,,0.00,WUHU216HW,2013-05-05 03:54:00,
2013-05-04 22:59:00,51.1,37.3,29.78,West,270,1.1,1.3,59,0.00,,,0.00,WUHU216HW,2013-05-05 03:59:00,
2013-05-04 23:01:00,50.9,37.1,29.78,West,270,1.1,1.3,59,0.00,,,0.00,WUHU216HW,2013-05-05 04:01:00,
2013-05-04 23:06:00,50.6,37.2,29.78,West,270,1.6,1.6,60,0.00,,,0.00,WUHU216HW,2013-05-05 04:06:00,
2013-05-04 23:11:00,50.4,37.4,29.78,West,270,0.7,1.6,61,0.00,,,0.00,WUHU216HW,2013-05-05 04:11:00,
2013-05-04 23:16:00,50.0,37.1,29.79,West,270,0.4,1.3,61,0.00,,,0.00,WUHU216HW,2013-05-05 04:16:00,
2013-05-04 23:21:00,49.9,37.0,29.79,West,270,0.0,1.1,61,0.00,,,0.00,WUHU216HW,2013-05-05 04:21:00,
2013-05-04 23:26:00,49.5,36.6,29.79,West,270,0.4,0.7,61,0.00,,,0.00,WUHU216HW,2013-05-05 04:26:00,
2013-05-04 23:31:00,49.3,36.8,29.79,West,270,0.2,0.7,62,0.00,,,0.00,WUHU216HW,2013-05-05 04:31:00,
2013-05-04 23:36:00,49.0,36.1,29.80,West,270,0.0,0.7,61,0.00,,,0.00,WUHU216HW,2013-05-05 04:36:00,
2013-05-04 23:41:00,48.6,35.8,29.80,West,270,0.0,0.7,61,0.00,,,0.00,WUHU216HW,2013-05-05 04:41:00,
2013-05-04 23:46:00,48.4,35.6,29.80,West,270,0.0,0.0,61,0.00,,,0.00,WUHU216HW,2013-05-05 04:46:00,
2013-05-04 23:51:00,48.2,35.5,29.80,West,270,0.2,0.4,61,0.00,,,0.00,WUHU216HW,2013-05-05 04:51:00,
2013-05-04 23:56:00,48.1,35.6,29.80,West,270,0.0,0.7,62,0.00,,,0.00,WUHU216HW,2013-05-05 04:56:00,